STARLINK-34912

Last updated on Tue Sep 16 2025 00:02:07 GMT+0000 (Coordinated Universal Time)

1 65378U 25190AD 25258.54755815 -.00334929 00000+0 -38557-2 0 9999 2 65378 53.1594 264.9902 0000887 51.9149 308.1946 15.62417805 2891
UTC large
Height (km)
Speed (km/s)
/
Latitude / Longitude
Inclination (degrees)
Orbital Period (minutes)
Azimuth
Elevation
Range (km)
Doppler Factor

Next 0 passes for location: London (51.5072 / 0.1276)

Sorry there are no passes over London.